| time (UTC) | temp C | wind direction | speed KPH | gust KPH | rain 1hr cm | rain 24hr cm | rain mn cm | humidity % | barometer mb |
| 20260901102920 | 29 | 84 | 12.9 | 20.9 | 0.00 | 0.00 | 0.00 | 63 | 1016.3 |
| 20260901102434 | 29 | 69 | 16.1 | 29.0 | 0.00 | 0.00 | 0.00 | 63 | 1016.4 |
| 20260901101918 | 29 | 60 | 14.5 | 27.4 | 0.00 | 0.00 | 0.00 | 63 | 1016.4 |
| 20260901100919 | 29 | 85 | 14.5 | 22.5 | 0.00 | 0.00 | 0.00 | 64 | 1016.4 |
| 20260901100418 | 29 | 81 | 14.5 | 20.9 | 0.00 | 0.00 | 0.00 | 62 | 1016.4 |
| 20260901095919 | 29 | 90 | 17.7 | 32.2 | 0.00 | 0.00 | 0.00 | 61 | 1016.4 |
| 20260901095420 | 29 | 70 | 16.1 | 27.4 | 0.00 | 0.00 | 0.00 | 62 | 1016.5 |
| 20260901094919 | 28 | 73 | 16.1 | 25.7 | 0.00 | 0.00 | 0.00 | 61 | 1016.5 |
| 20260901094424 | 28 | 83 | 16.1 | 27.4 | 0.00 | 0.00 | 0.00 | 60 | 1016.5 |
| 20260901093921 | 28 | 69 | 14.5 | 24.1 | 0.00 | 0.00 | 0.00 | 59 | 1016.6 |
| 20260901093418 | 28 | 90 | 11.3 | 22.5 | 0.00 | 0.00 | 0.00 | 63 | 1016.6 |
| 20260901092919 | 28 | 98 | 12.9 | 25.7 | 0.00 | 0.00 | 0.00 | 61 | 1016.7 |
| 20260901092419 | 28 | 77 | 12.9 | 22.5 | 0.00 | 0.00 | 0.00 | 62 | 1016.7 |
| 20260901091419 | 28 | 77 | 14.5 | 24.1 | 0.00 | 0.00 | 0.00 | 61 | 1016.7 |
| 20260901090919 | 28 | 77 | 11.3 | 20.9 | 0.00 | 0.00 | 0.00 | 63 | 1016.8 |
| 20260901090418 | 27 | 73 | 14.5 | 24.1 | 0.00 | 0.00 | 0.00 | 62 | 1016.8 |
| 20260901085919 | 27 | 89 | 14.5 | 20.9 | 0.00 | 0.00 | 0.00 | 64 | 1016.9 |
| 20260901085418 | 27 | 75 | 12.9 | 27.4 | 0.00 | 0.00 | 0.00 | 65 | 1016.9 |
| 20260901084921 | 26 | 86 | 14.5 | 22.5 | 0.00 | 0.00 | 0.00 | 64 | 1016.9 |
| 20260901083920 | 26 | 79 | 14.5 | 22.5 | 0.00 | 0.00 | 0.00 | 63 | 1016.8 |
| 20260901083421 | 27 | 76 | 14.5 | 25.7 | 0.00 | 0.00 | 0.00 | 63 | 1016.8 |
| 20260901082418 | 27 | 88 | 16.1 | 25.7 | 0.00 | 0.00 | 0.00 | 63 | 1016.8 |
| 20260901081918 | 26 | 95 | 16.1 | 27.4 | 0.00 | 0.00 | 0.00 | 63 | 1016.7 |
| 20260901081419 | 26 | 79 | 14.5 | 25.7 | 0.00 | 0.00 | 0.00 | 63 | 1016.7 |
| 20260901080919 | 26 | 87 | 11.3 | 19.3 | 0.00 | 0.00 | 0.00 | 65 | 1016.6 |
| 20260901080419 | 26 | 73 | 9.7 | 19.3 | 0.00 | 0.00 | 0.00 | 68 | 1016.6 |
| 20260901075918 | 26 | 65 | 12.9 | 20.9 | 0.00 | 0.00 | 0.00 | 66 | 1016.6 |
| 20260901075418 | 26 | 60 | 9.7 | 19.3 | 0.00 | 0.00 | 0.00 | 68 | 1016.5 |
| 20260901074918 | 26 | 73 | 12.9 | 20.9 | 0.00 | 0.00 | 0.00 | 71 | 1016.5 |
| 20260901074418 | 25 | 55 | 6.4 | 12.9 | 0.00 | 0.00 | 0.00 | 71 | 1016.4 |
| 20260901073418 | 25 | 46 | 6.4 | 12.9 | 0.00 | 0.00 | 0.00 | 73 | 1016.3 |
| 20260901072918 | 25 | 43 | 6.4 | 12.9 | 0.00 | 0.00 | 0.00 | 74 | 1016.3 |
| 20260901072418 | 24 | 69 | 4.8 | 11.3 | 0.00 | 0.00 | 0.00 | 74 | 1016.3 |
| 20260901071918 | 24 | 58 | 4.8 | 8.0 | 0.00 | 0.00 | 0.00 | 77 | 1016.3 |
| 20260901070918 | 23 | 77 | 6.4 | 9.7 | 0.00 | 0.00 | 0.00 | 77 | 1016.2 |
| 20260901070418 | 23 | 70 | 3.2 | 11.3 | 0.00 | 0.00 | 0.00 | 78 | 1016.2 |
| 20260901065918 | 23 | 24 | 3.2 | 12.9 | 0.00 | 0.00 | 0.00 | 77 | 1016.2 |
| 20260901065417 | 23 | 75 | 6.4 | 16.1 | 0.00 | 0.00 | 0.00 | 76 | 1016.1 |
| 20260901064418 | 23 | 47 | 8.0 | 16.1 | 0.00 | 0.00 | 0.00 | 76 | 1016.0 |
| 20260901063918 | 23 | 73 | 8.0 | 19.3 | 0.00 | 0.00 | 0.00 | 75 | 1016.0 |
| 20260901062918 | 22 | 57 | 8.0 | 12.9 | 0.00 | 0.00 | 0.00 | 76 | 1016.0 |
| 20260901062418 | 22 | 69 | 8.0 | 12.9 | 0.00 | 0.00 | 0.00 | 77 | 1015.9 |
| 20260901061917 | 22 | 70 | 11.3 | 19.3 | 0.00 | 0.00 | 0.00 | 77 | 1015.9 |
| 20260901061418 | 22 | 65 | 8.0 | 14.5 | 0.00 | 0.00 | 0.00 | 77 | 1015.9 |
| 20260901060918 | 22 | 70 | 6.4 | 12.9 | 0.00 | 0.00 | 0.00 | 78 | 1015.8 |
| 20260901060418 | 22 | 69 | 6.4 | 11.3 | 0.00 | 0.00 | 0.00 | 78 | 1015.9 |
| 20260901055918 | 22 | 63 | 4.8 | 8.0 | 0.00 | 0.00 | 0.00 | 78 | 1015.8 |
| 20260901055418 | 22 | 68 | 6.4 | 11.3 | 0.00 | 0.00 | 0.00 | 78 | 1015.8 |
| 20260901054918 | 22 | 71 | 6.4 | 12.9 | 0.00 | 0.00 | 0.00 | 78 | 1015.8 |
| 20260901054418 | 22 | 86 | 6.4 | 12.9 | 0.00 | 0.00 | 0.00 | 80 | 1015.7 |
| 20260901053918 | 22 | 107 | 4.8 | 11.3 | 0.00 | 0.00 | 0.00 | 81 | 1015.7 |
| 20260901053418 | 21 | 102 | 4.8 | 9.7 | 0.00 | 0.00 | 0.00 | 82 | 1015.7 |
| 20260901052918 | 21 | 89 | 4.8 | 11.3 | 0.00 | 0.00 | 0.00 | 84 | 1015.7 |
| 20260901052418 | 21 | 87 | 3.2 | 11.3 | 0.00 | 0.00 | 0.00 | 85 | 1015.6 |
| 20260901051918 | 21 | 91 | 3.2 | 9.7 | 0.00 | 0.00 | 0.00 | 86 | 1015.6 |
| 20260901051418 | 21 | 97 | 3.2 | 4.8 | 0.00 | 0.00 | 0.00 | 87 | 1015.6 |
| 20260901050919 | 21 | 159 | 1.6 | 4.8 | 0.00 | 0.00 | 0.00 | 87 | 1015.6 |
| 20260901050419 | 21 | 159 | 1.6 | 4.8 | 0.00 | 0.00 | 0.00 | 88 | 1015.5 |
| 20260901045918 | 21 | 159 | 1.6 | 3.2 | 0.00 | 0.00 | 0.00 | 88 | 1015.5 |
| 20260901045418 | 21 | 159 | 1.6 | 4.8 | 0.00 | 0.00 | 0.00 | 89 | 1015.5 |
| 20260901044917 | 21 | 159 | 3.2 | 4.8 | 0.00 | 0.00 | 0.00 | 89 | 1015.4 |
| 20260901044417 | 21 | 167 | 0.0 | 3.2 | 0.00 | 0.00 | 0.00 | 90 | 1015.3 |
| 20260901043919 | 21 | 182 | 1.6 | 3.2 | 0.00 | 0.00 | 0.00 | 90 | 1015.3 |
| 20260901043418 | 21 | 194 | 0.0 | 4.8 | 0.00 | 0.00 | 0.00 | 90 | 1015.3 |
| 20260901042917 | 21 | 184 | 1.6 | 4.8 | 0.00 | 0.00 | 0.00 | 90 | 1015.3 |
| 20260901042419 | 21 | 203 | 3.2 | 4.8 | 0.00 | 0.00 | 0.00 | 90 | 1015.2 |
| 20260901041918 | 21 | 199 | 0.0 | 4.8 | 0.00 | 0.00 | 0.00 | 90 | 1015.1 |
| 20260901040918 | 21 | 149 | 1.6 | 4.8 | 0.00 | 0.00 | 0.00 | 91 | 1015.2 |
| 20260901040417 | 21 | 128 | 1.6 | 4.8 | 0.00 | 0.00 | 0.00 | 91 | 1015.0 |
| 20260901035917 | 21 | 67 | 0.0 | 1.6 | 0.00 | 0.00 | 0.00 | 91 | 1015.0 |
| 20260901034418 | 21 | 67 | 1.6 | 3.2 | 0.00 | 0.00 | 0.00 | 90 | 1014.7 |
| 20260901033917 | 21 | 67 | 1.6 | 4.8 | 0.00 | 0.00 | 0.00 | 90 | 1014.6 |
| 20260901033417 | 21 | 67 | 3.2 | 4.8 | 0.00 | 0.00 | 0.00 | 89 | 1014.6 |
| 20260901032918 | 22 | 68 | 1.6 | 4.8 | 0.00 | 0.00 | 0.00 | 89 | 1014.6 |
| 20260901032418 | 22 | 69 | 3.2 | 4.8 | 0.00 | 0.00 | 0.00 | 89 | 1014.6 |
| 20260901031418 | 22 | 75 | 4.8 | 8.0 | 0.00 | 0.00 | 0.00 | 88 | 1014.5 |
| 20260901030918 | 22 | 55 | 4.8 | 9.7 | 0.00 | 0.00 | 0.00 | 88 | 1014.5 |
| 20260901030417 | 22 | 81 | 4.8 | 11.3 | 0.00 | 0.00 | 0.00 | 88 | 1014.5 |
| 20260901025918 | 22 | 74 | 8.0 | 12.9 | 0.00 | 0.00 | 0.00 | 88 | 1014.5 |
| 20260901024918 | 22 | 109 | 3.2 | 8.0 | 0.00 | 0.00 | 0.00 | 88 | 1014.6 |
| 20260901023918 | 22 | 82 | 3.2 | 8.0 | 0.00 | 0.00 | 0.00 | 87 | 1014.5 |
| 20260901023417 | 22 | 87 | 3.2 | 4.8 | 0.00 | 0.00 | 0.00 | 86 | 1014.4 |
| 20260901022918 | 22 | 124 | 4.8 | 8.0 | 0.00 | 0.00 | 0.00 | 86 | 1014.4 |
| 20260901021917 | 22 | 76 | 4.8 | 8.0 | 0.00 | 0.00 | 0.00 | 86 | 1014.4 |
| 20260901021417 | 22 | 111 | 3.2 | 8.0 | 0.00 | 0.00 | 0.00 | 86 | 1014.3 |
| 20260901020918 | 22 | 107 | 4.8 | 12.9 | 0.00 | 0.00 | 0.00 | 86 | 1014.3 |
| 20260901020417 | 22 | 92 | 3.2 | 8.0 | 0.00 | 0.00 | 0.00 | 86 | 1014.3 |
| 20260901015917 | 22 | 93 | 4.8 | 11.3 | 0.00 | 0.00 | 0.00 | 87 | 1014.2 |
| 20260901015418 | 21 | 126 | 6.4 | 12.9 | 0.00 | 0.00 | 0.00 | 89 | 1014.2 |
| 20260901014417 | 21 | 114 | 3.2 | 8.0 | 0.00 | 0.00 | 0.00 | 90 | 1014.1 |
| 20260901013917 | 21 | 109 | 3.2 | 8.0 | 0.00 | 0.00 | 0.00 | 90 | 1014.1 |
| 20260901013418 | 21 | 94 | 4.8 | 8.0 | 0.00 | 0.00 | 0.00 | 90 | 1014.1 |
| 20260901012917 | 21 | 85 | 4.8 | 9.7 | 0.00 | 0.00 | 0.00 | 89 | 1014.1 |
| 20260901012418 | 21 | 83 | 4.8 | 9.7 | 0.00 | 0.00 | 0.00 | 89 | 1014.0 |
| 20260901011918 | 21 | 70 | 4.8 | 4.8 | 0.00 | 0.00 | 0.00 | 89 | 1014.0 |
| 20260901011417 | 21 | 191 | 3.2 | 4.8 | 0.00 | 0.00 | 0.00 | 89 | 1013.9 |
| 20260901010917 | 21 | 128 | 1.6 | 4.8 | 0.00 | 0.00 | 0.00 | 89 | 1013.8 |
| 20260901010418 | 21 | 147 | 3.2 | 4.8 | 0.00 | 0.00 | 0.00 | 88 | 1013.7 |
| 20260901005917 | 21 | 146 | 3.2 | 4.8 | 0.00 | 0.00 | 0.00 | 88 | 1013.7 |
| 20260901005416 | 21 | 167 | 3.2 | 4.8 | 0.00 | 0.00 | 0.00 | 88 | 1013.6 |
| 20260901004917 | 21 | 159 | 1.6 | 4.8 | 0.00 | 0.00 | 0.00 | 87 | 1013.6 |
| 20260901004417 | 21 | 42 | 1.6 | 3.2 | 0.00 | 0.00 | 0.00 | 87 | 1013.5 |
| 20260901003917 | 21 | 42 | 0.0 | 0.0 | 0.00 | 0.00 | 0.00 | 86 | 1013.5 |
| 20260901002918 | 22 | 42 | 3.2 | 3.2 | 0.00 | 0.00 | 0.00 | 85 | 1013.4 |
| 20260901001419 | 22 | 42 | 3.2 | 4.8 | 0.00 | 0.00 | 0.00 | 85 | 1013.3 |
| 20260901000917 | 22 | 231 | 1.6 | 3.2 | 0.00 | 0.00 | 0.00 | 85 | 1013.3 |
| 20260901000417 | 22 | 229 | 3.2 | 4.8 | 0.00 | 0.00 | 0.00 | 84 | 1013.2 |
| 20260831235916 | 22 | 229 | 0.0 | 0.0 | 0.00 | 0.00 | 0.00 | 83 | 1013.2 |
| 20260831235416 | 22 | 229 | 0.0 | 0.0 | 0.00 | 0.00 | 0.00 | 82 | 1013.2 |
| 20260831234917 | 23 | 229 | 0.0 | 3.2 | 0.00 | 0.00 | 0.00 | 80 | 1013.2 |
| 20260831234417 | 23 | 229 | 3.2 | 4.8 | 0.00 | 0.00 | 0.00 | 79 | 1013.1 |
| 20260831233917 | 23 | 223 | 1.6 | 3.2 | 0.00 | 0.00 | 0.00 | 79 | 1013.1 |
| 20260831233418 | 23 | 223 | 1.6 | 4.8 | 0.00 | 0.00 | 0.00 | 79 | 1013.0 |
| 20260831232917 | 23 | 220 | 3.2 | 4.8 | 0.00 | 0.00 | 0.00 | 79 | 1013.0 |
| 20260831232417 | 23 | 201 | 3.2 | 4.8 | 0.00 | 0.00 | 0.00 | 80 | 1013.0 |
| 20260831231917 | 23 | 202 | 3.2 | 4.8 | 0.00 | 0.00 | 0.00 | 79 | 1013.0 |
| 20260831231416 | 23 | 222 | 3.2 | 4.8 | 0.00 | 0.00 | 0.00 | 78 | 1012.9 |
| 20260831230417 | 23 | 280 | 3.2 | 4.8 | 0.00 | 0.00 | 0.00 | 77 | 1012.8 |
| 20260831225917 | 24 | 273 | 3.2 | 4.8 | 0.00 | 0.00 | 0.00 | 77 | 1012.8 |
| 20260831224417 | 24 | 229 | 4.8 | 8.0 | 0.00 | 0.00 | 0.00 | 77 | 1012.6 |
| 20260831223917 | 24 | 218 | 3.2 | 8.0 | 0.00 | 0.00 | 0.00 | 77 | 1012.6 |
| 20260831223417 | 24 | 221 | 4.8 | 8.0 | 0.00 | 0.00 | 0.00 | 77 | 1012.5 |
| 20260831222917 | 24 | 220 | 4.8 | 9.7 | 0.00 | 0.00 | 0.00 | 77 | 1012.4 |
| 20260831221916 | 24 | 212 | 4.8 | 8.0 | 0.00 | 0.00 | 0.00 | 77 | 1012.4 |
| 20260831220916 | 24 | 215 | 4.8 | 4.8 | 0.00 | 0.00 | 0.00 | 77 | 1012.4 |
| 20260831220416 | 24 | 191 | 3.2 | 4.8 | 0.00 | 0.00 | 0.00 | 77 | 1012.4 |
| 20260831215917 | 24 | 221 | 1.6 | 4.8 | 0.00 | 0.00 | 0.00 | 77 | 1012.3 |
| 20260831215417 | 24 | 207 | 3.2 | 4.8 | 0.00 | 0.00 | 0.00 | 77 | 1012.3 |
| 20260831214916 | 24 | 216 | 1.6 | 4.8 | 0.00 | 0.00 | 0.00 | 76 | 1012.2 |
| 20260831214417 | 24 | 223 | 3.2 | 4.8 | 0.00 | 0.00 | 0.00 | 76 | 1012.2 |
| 20260831213916 | 25 | 247 | 1.6 | 4.8 | 0.00 | 0.00 | 0.00 | 76 | 1012.2 |
| 20260831213416 | 25 | 232 | 3.2 | 4.8 | 0.00 | 0.00 | 0.00 | 75 | 1012.2 |
| 20260831212916 | 24 | 232 | 3.2 | 4.8 | 0.00 | 0.00 | 0.00 | 76 | 1012.2 |
| 20260831211916 | 24 | 233 | 3.2 | 4.8 | 0.00 | 0.00 | 0.00 | 77 | 1012.1 |
| 20260831211416 | 25 | 233 | 3.2 | 3.2 | 0.00 | 0.00 | 0.00 | 76 | 1012.1 |
| 20260831210916 | 24 | 233 | 1.6 | 3.2 | 0.00 | 0.00 | 0.00 | 77 | 1012.2 |
| 20260831210416 | 24 | 227 | 1.6 | 3.2 | 0.00 | 0.00 | 0.00 | 77 | 1012.0 |
| 20260831205916 | 25 | 225 | 3.2 | 3.2 | 0.00 | 0.00 | 0.00 | 76 | 1012.0 |
| 20260831205416 | 25 | 224 | 1.6 | 4.8 | 0.00 | 0.00 | 0.00 | 75 | 1011.9 |
| 20260831204416 | 25 | 230 | 3.2 | 4.8 | 0.00 | 0.00 | 0.00 | 74 | 1011.9 |
| 20260831203916 | 25 | 230 | 0.0 | 3.2 | 0.00 | 0.00 | 0.00 | 75 | 1011.8 |
| 20260831202916 | 25 | 230 | 1.6 | 4.8 | 0.00 | 0.00 | 0.00 | 76 | 1011.7 |
| 20260831202416 | 25 | 230 | 3.2 | 4.8 | 0.00 | 0.00 | 0.00 | 76 | 1011.7 |
| 20260831201916 | 25 | 230 | 3.2 | 4.8 | 0.00 | 0.00 | 0.00 | 75 | 1011.7 |
| 20260831200916 | 24 | 224 | 4.8 | 4.8 | 0.00 | 0.00 | 0.00 | 78 | 1011.6 |
| 20260831200416 | 25 | 148 | 1.6 | 4.8 | 0.00 | 0.00 | 0.00 | 78 | 1011.6 |
| 20260831195916 | 24 | 147 | 0.0 | 3.2 | 0.00 | 0.00 | 0.00 | 78 | 1011.6 |
| 20260831195416 | 25 | 147 | 4.8 | 4.8 | 0.00 | 0.00 | 0.00 | 75 | 1011.5 |
| 20260831194417 | 26 | 310 | 0.0 | 0.0 | 0.00 | 0.00 | 0.00 | 74 | 1011.4 |
| 20260831193916 | 26 | 310 | 0.0 | 0.0 | 0.00 | 0.00 | 0.00 | 73 | 1011.4 |
| 20260831193416 | 25 | 310 | 0.0 | 0.0 | 0.00 | 0.00 | 0.00 | 73 | 1011.4 |
| 20260831192916 | 26 | 310 | 0.0 | 0.0 | 0.00 | 0.00 | 0.00 | 74 | 1011.4 |
| 20260831191415 | 26 | 310 | 0.0 | 0.0 | 0.00 | 0.00 | 0.00 | 73 | 1011.4 |
| 20260831190916 | 26 | 310 | 0.0 | 0.0 | 0.00 | 0.00 | 0.00 | 72 | 1011.4 |
| 20260831185916 | 26 | 310 | 0.0 | 0.0 | 0.00 | 0.00 | 0.00 | 71 | 1011.3 |
| 20260831185416 | 27 | 310 | 0.0 | 0.0 | 0.00 | 0.00 | 0.00 | 70 | 1011.2 |
| 20260831184915 | 27 | 310 | 0.0 | 0.0 | 0.00 | 0.00 | 0.00 | 70 | 1011.2 |
| 20260831184416 | 26 | 310 | 0.0 | 0.0 | 0.00 | 0.00 | 0.00 | 70 | 1011.1 |
| 20260831183916 | 26 | 310 | 0.0 | 0.0 | 0.00 | 0.00 | 0.00 | 70 | 1011.0 |
| 20260831183416 | 27 | 310 | 0.0 | 0.0 | 0.00 | 0.00 | 0.00 | 68 | 1011.0 |
| 20260831182916 | 27 | 310 | 0.0 | 0.0 | 0.00 | 0.00 | 0.00 | 67 | 1011.0 |
| 20260831182416 | 27 | 310 | 0.0 | 0.0 | 0.00 | 0.00 | 0.00 | 66 | 1010.9 |
| 20260831181916 | 28 | 310 | 0.0 | 1.6 | 0.00 | 0.00 | 0.00 | 64 | 1010.9 |
| 20260831181415 | 28 | 310 | 0.0 | 1.6 | 0.00 | 0.00 | 0.00 | 61 | 1010.9 |
| 20260831180917 | 28 | 310 | 1.6 | 3.2 | 0.00 | 0.00 | 0.00 | 60 | 1010.9 |
| 20260831180416 | 29 | 310 | 1.6 | 4.8 | 0.00 | 0.00 | 0.00 | 58 | 1010.8 |
| 20260831175916 | 29 | 310 | 1.6 | 4.8 | 0.00 | 0.00 | 0.00 | 58 | 1010.8 |
| 20260831175415 | 29 | 308 | 3.2 | 4.8 | 0.00 | 0.00 | 0.00 | 58 | 1010.8 |
| 20260831174916 | 30 | 296 | 3.2 | 4.8 | 0.00 | 0.00 | 0.00 | 57 | 1010.8 |
| 20260831174416 | 30 | 286 | 3.2 | 4.8 | 0.00 | 0.00 | 0.00 | 57 | 1010.7 |
| 20260831173916 | 30 | 288 | 1.6 | 3.2 | 0.00 | 0.00 | 0.00 | 57 | 1010.7 |
| 20260831173416 | 30 | 288 | 1.6 | 4.8 | 0.00 | 0.00 | 0.00 | 56 | 1010.7 |
| 20260831172916 | 31 | 288 | 1.6 | 4.8 | 0.00 | 0.00 | 0.00 | 54 | 1010.7 |
| 20260831172415 | 31 | 293 | 3.2 | 8.0 | 0.00 | 0.00 | 0.00 | 53 | 1010.7 |
| 20260831171916 | 31 | 305 | 3.2 | 8.0 | 0.00 | 0.00 | 0.00 | 53 | 1010.7 |
| 20260831170917 | 31 | 303 | 4.8 | 4.8 | 0.00 | 0.00 | 0.00 | 51 | 1010.8 |
| 20260831170416 | 31 | 293 | 4.8 | 8.0 | 0.00 | 0.00 | 0.00 | 51 | 1010.8 |
| 20260831165415 | 32 | 305 | 3.2 | 4.8 | 0.00 | 0.00 | 0.00 | 50 | 1010.9 |
| 20260831164916 | 32 | 261 | 1.6 | 4.8 | 0.00 | 0.00 | 0.00 | 49 | 1010.9 |
| 20260831164416 | 32 | 296 | 3.2 | 8.0 | 0.00 | 0.00 | 0.00 | 48 | 1010.9 |
| 20260831163915 | 32 | 296 | 6.4 | 9.7 | 0.00 | 0.00 | 0.00 | 48 | 1010.9 |
| 20260831162416 | 32 | 290 | 4.8 | 12.9 | 0.00 | 0.00 | 0.00 | 47 | 1011.0 |
| 20260831161915 | 32 | 290 | 4.8 | 11.3 | 0.00 | 0.00 | 0.00 | 48 | 1011.0 |
| 20260831161415 | 32 | 303 | 8.0 | 11.3 | 0.00 | 0.00 | 0.00 | 48 | 1011.1 |
| 20260831160915 | 32 | 297 | 4.8 | 11.3 | 0.00 | 0.00 | 0.00 | 48 | 1011.1 |
| 20260831160416 | 32 | 198 | 1.6 | 4.8 | 0.00 | 0.00 | 0.00 | 48 | 1011.1 |
| 20260831152915 | 33 | 292 | 8.0 | 11.3 | 0.00 | 0.00 | 0.00 | 48 | 1011.3 |
| 20260831152415 | 32 | 297 | 8.0 | 14.5 | 0.00 | 0.00 | 0.00 | 48 | 1011.3 |
| 20260831151915 | 32 | 251 | 4.8 | 4.8 | 0.00 | 0.00 | 0.00 | 49 | 1011.4 |
| 20260831151416 | 32 | 70 | 1.6 | 8.0 | 0.00 | 0.00 | 0.00 | 48 | 1011.4 |
| 20260831150915 | 33 | 291 | 8.0 | 9.7 | 0.00 | 0.00 | 0.00 | 48 | 1011.4 |
| 20260831150415 | 33 | 262 | 3.2 | 11.3 | 0.00 | 0.00 | 0.00 | 49 | 1011.5 |
| 20260831145416 | 32 | 347 | 1.6 | 4.8 | 0.00 | 0.00 | 0.00 | 48 | 1011.5 |
| 20260831144916 | 32 | 240 | 0.0 | 4.8 | 0.00 | 0.00 | 0.00 | 47 | 1011.6 |
| 20260831144415 | 32 | 293 | 3.2 | 9.7 | 0.00 | 0.00 | 0.00 | 50 | 1011.6 |
| 20260831143415 | 33 | 245 | 8.0 | 14.5 | 0.00 | 0.00 | 0.00 | 48 | 1011.6 |
| 20260831142915 | 33 | 285 | 8.0 | 11.3 | 0.00 | 0.00 | 0.00 | 48 | 1011.6 |
| 20260831142415 | 32 | 311 | 3.2 | 8.0 | 0.00 | 0.00 | 0.00 | 49 | 1011.6 |
| 20260831141415 | 32 | 213 | 8.0 | 12.9 | 0.00 | 0.00 | 0.00 | 48 | 1011.6 |
| 20260831140915 | 32 | 288 | 1.6 | 11.3 | 0.00 | 0.00 | 0.00 | 48 | 1011.7 |
| 20260831140415 | 32 | 267 | 8.0 | 11.3 | 0.00 | 0.00 | 0.00 | 50 | 1011.7 |
| 20260831134915 | 32 | 303 | 4.8 | 14.5 | 0.00 | 0.00 | 0.00 | 48 | 1011.8 |
| 20260831133916 | 32 | 286 | 8.0 | 19.3 | 0.00 | 0.00 | 0.00 | 51 | 1011.8 |
| 20260831133415 | 32 | 250 | 8.0 | 12.9 | 0.00 | 0.00 | 0.00 | 51 | 1011.8 |
| 20260831132915 | 32 | 241 | 4.8 | 9.7 | 0.00 | 0.00 | 0.00 | 50 | 1011.9 |
| 20260831132415 | 32 | 223 | 3.2 | 8.0 | 0.00 | 0.00 | 0.00 | 49 | 1012.0 |
| 20260831131915 | 32 | 220 | 8.0 | 11.3 | 0.00 | 0.00 | 0.00 | 50 | 1012.0 |
| 20260831131415 | 32 | 256 | 4.8 | 11.3 | 0.00 | 0.00 | 0.00 | 51 | 1012.1 |
| 20260831130916 | 32 | 262 | 6.4 | 11.3 | 0.00 | 0.00 | 0.00 | 50 | 1012.2 |
| 20260831125915 | 32 | 243 | 6.4 | 11.3 | 0.00 | 0.00 | 0.00 | 51 | 1012.2 |
| 20260831125415 | 32 | 234 | 3.2 | 9.7 | 0.00 | 0.00 | 0.00 | 52 | 1012.2 |
| 20260831124415 | 32 | 260 | 8.0 | 14.5 | 0.00 | 0.00 | 0.00 | 51 | 1012.4 |
| 20260831123916 | 32 | 283 | 4.8 | 9.7 | 0.00 | 0.00 | 0.00 | 51 | 1012.5 |
| 20260831123414 | 32 | 309 | 4.8 | 8.0 | 0.00 | 0.00 | 0.00 | 52 | 1012.5 |
| 20260831122914 | 32 | 31 | 4.8 | 8.0 | 0.00 | 0.00 | 0.00 | 52 | 1012.5 |
| 20260831122415 | 32 | 308 | 6.4 | 11.3 | 0.00 | 0.00 | 0.00 | 52 | 1012.5 |
| 20260831121915 | 31 | 5 | 3.2 | 4.8 | 0.00 | 0.00 | 0.00 | 52 | 1012.6 |
| 20260831121414 | 31 | 213 | 3.2 | 8.0 | 0.00 | 0.00 | 0.00 | 52 | 1012.6 |
| 20260831120915 | 31 | 265 | 6.4 | 11.3 | 0.00 | 0.00 | 0.00 | 53 | 1012.6 |
| 20260831120414 | 32 | 287 | 9.7 | 12.9 | 0.00 | 0.00 | 0.00 | 53 | 1012.7 |
| 20260831115915 | 32 | 315 | 4.8 | 11.3 | 0.00 | 0.00 | 0.00 | 53 | 1012.7 |
| 20260831115416 | 32 | 353 | 4.8 | 9.7 | 0.00 | 0.00 | 0.00 | 53 | 1012.7 |
| 20260831114916 | 32 | 337 | 6.4 | 14.5 | 0.00 | 0.00 | 0.00 | 52 | 1012.7 |
| 20260831114415 | 32 | 296 | 8.0 | 12.9 | 0.00 | 0.00 | 0.00 | 52 | 1012.8 |
| 20260831113914 | 32 | 312 | 3.2 | 11.3 | 0.00 | 0.00 | 0.00 | 53 | 1012.8 |
| 20260831113415 | 31 | 245 | 4.8 | 8.0 | 0.00 | 0.00 | 0.00 | 54 | 1012.9 |
| 20260831112915 | 31 | 261 | 8.0 | 16.1 | 0.00 | 0.00 | 0.00 | 54 | 1013.0 |
| 20260831112414 | 31 | 267 | 8.0 | 16.1 | 0.00 | 0.00 | 0.00 | 55 | 1012.9 |
| 20260831111415 | 31 | 327 | 4.8 | 19.3 | 0.00 | 0.00 | 0.00 | 54 | 1013.0 |
| 20260831110916 | 31 | 300 | 4.8 | 11.3 | 0.00 | 0.00 | 0.00 | 55 | 1013.0 |
| 20260831110414 | 30 | 152 | 4.8 | 8.0 | 0.00 | 0.00 | 0.00 | 56 | 1013.0 |
| 20260831105915 | 30 | 240 | 3.2 | 9.7 | 0.00 | 0.00 | 0.00 | 56 | 1013.0 |
| 20260831105414 | 31 | 246 | 6.4 | 14.5 | 0.00 | 0.00 | 0.00 | 55 | 1013.0 |
| 20260831104914 | 30 | 242 | 3.2 | 9.7 | 0.00 | 0.00 | 0.00 | 58 | 1013.1 |
| 20260831104414 | 30 | 202 | 6.4 | 9.7 | 0.00 | 0.00 | 0.00 | 57 | 1013.1 |